Time,TemperatureF,DewpointF,PressureIn,WindDirection,WindDirectionDegrees,WindSpeedMPH,WindSpeedGustMPH,Humidity,HourlyPrecipIn,Conditions,Clouds,dailyrainin,SolarRadiationWatts/m^2,SoftwareType,DateUTC
2013-10-26 00:01:00,38.8,29.1,30.09,SW,229,0.0,0.0,68,0.00,,,0.00,0,Wunderground v.1.15,2013-10-26 04:01:00,
2013-10-26 00:10:00,38.2,28.9,30.09,SW,229,0.0,0.0,69,0.00,,,0.00,0,Wunderground v.1.15,2013-10-26 04:10:00,
2013-10-26 00:15:00,37.8,28.9,30.09,SW,229,0.0,0.0,70,0.00,,,0.00,0,Wunderground v.1.15,2013-10-26 04:15:00,
2013-10-26 00:20:00,37.3,28.4,30.09,SW,229,0.0,0.0,70,0.00,,,0.00,0,Wunderground v.1.15,2013-10-26 04:20:00,
2013-10-26 00:25:00,37.0,28.5,30.09,SW,230,0.0,0.0,71,0.00,,,0.00,0,Wunderground v.1.15,2013-10-26 04:25:00,
2013-10-26 00:30:00,36.8,28.6,30.09,SW,230,0.0,1.0,72,0.00,,,0.00,0,Wunderground v.1.15,2013-10-26 04:30:00,
2013-10-26 00:35:00,36.6,28.8,30.09,SW,230,0.0,1.0,73,0.00,,,0.00,0,Wunderground v.1.15,2013-10-26 04:35:00,
2013-10-26 00:40:00,36.6,28.8,30.09,SW,230,0.0,1.0,73,0.00,,,0.00,0,Wunderground v.1.15,2013-10-26 04:40:00,
2013-10-26 00:45:00,36.5,29.0,30.08,SW,230,0.0,1.0,74,0.00,,,0.00,0,Wunderground v.1.15,2013-10-26 04:45:00,
2013-10-26 00:51:00,36.3,28.8,30.08,SW,230,1.0,1.0,74,0.00,,,0.00,0,Wunderground v.1.15,2013-10-26 04:51:00,
2013-10-26 01:01:00,36.2,29.0,30.08,West,266,1.0,1.0,75,0.00,,,0.00,0,Wunderground v.1.15,2013-10-26 05:01:00,
2013-10-26 01:06:00,36.0,28.8,30.08,West,266,1.0,1.0,75,0.00,,,0.00,0,Wunderground v.1.15,2013-10-26 05:06:00,
2013-10-26 01:15:00,35.9,29.1,30.08,West,265,0.0,0.0,76,0.00,,,0.00,0,Wunderground v.1.15,2013-10-26 05:15:00,
2013-10-26 01:20:00,35.8,28.3,30.08,West,266,0.0,0.0,74,0.00,,,0.00,0,Wunderground v.1.15,2013-10-26 05:20:00,
2013-10-26 01:25:00,35.6,27.8,30.08,West,266,0.0,0.0,73,0.00,,,0.00,0,Wunderground v.1.15,2013-10-26 05:25:00,
2013-10-26 01:31:00,35.5,27.7,30.07,West,266,0.0,0.0,73,0.00,,,0.00,0,Wunderground v.1.15,2013-10-26 05:31:00,
2013-10-26 01:36:00,35.2,27.7,30.07,West,264,0.0,1.0,74,0.00,,,0.00,0,Wunderground v.1.15,2013-10-26 05:36:00,
2013-10-26 01:41:00,34.9,27.8,30.07,West,262,1.0,1.0,75,0.00,,,0.00,0,Wunderground v.1.15,2013-10-26 05:41:00,
2013-10-26 01:50:00,34.6,27.8,30.07,West,276,3.0,3.0,76,0.00,,,0.00,0,Wunderground v.1.15,2013-10-26 05:50:00,
2013-10-26 01:55:00,34.6,27.8,30.07,West,259,2.0,4.0,76,0.00,,,0.00,0,Wunderground v.1.15,2013-10-26 05:55:00,
2013-10-26 02:00:00,34.4,27.6,30.06,West,259,3.0,4.0,76,0.00,,,0.00,0,Wunderground v.1.15,2013-10-26 06:00:00,
2013-10-26 02:06:00,34.3,27.5,30.06,West,266,4.0,4.0,76,0.00,,,0.00,0,Wunderground v.1.15,2013-10-26 06:06:00,
2013-10-26 02:15:00,34.3,27.5,30.06,West,271,2.0,4.0,76,0.00,,,0.00,0,Wunderground v.1.15,2013-10-26 06:15:00,
2013-10-26 02:20:00,34.1,27.6,30.06,West,271,0.0,0.0,77,0.00,,,0.00,0,Wunderground v.1.15,2013-10-26 06:20:00,
2013-10-26 02:25:00,34.1,27.6,30.06,West,271,0.0,0.0,77,0.00,,,0.00,0,Wunderground v.1.15,2013-10-26 06:25:00,
2013-10-26 02:31:00,34.3,27.8,30.07,West,271,0.0,0.0,77,0.00,,,0.00,0,Wunderground v.1.15,2013-10-26 06:31:00,
2013-10-26 02:36:00,34.3,27.8,30.07,West,271,0.0,0.0,77,0.00,,,0.00,0,Wunderground v.1.15,2013-10-26 06:36:00,
2013-10-26 02:41:00,34.3,28.2,30.07,West,271,0.0,0.0,78,0.00,,,0.00,0,Wunderground v.1.15,2013-10-26 06:41:00,
2013-10-26 02:50:00,34.4,28.2,30.06,West,271,0.0,0.0,78,0.00,,,0.00,0,Wunderground v.1.15,2013-10-26 06:50:00,
2013-10-26 02:55:00,34.4,28.2,30.06,West,271,0.0,0.0,78,0.00,,,0.00,0,Wunderground v.1.15,2013-10-26 06:55:00,
2013-10-26 03:00:00,34.3,28.2,30.06,West,271,0.0,0.0,78,0.00,,,0.00,0,Wunderground v.1.15,2013-10-26 07:00:00,
2013-10-26 03:06:00,34.4,28.2,30.06,West,271,0.0,0.0,78,0.00,,,0.00,0,Wunderground v.1.15,2013-10-26 07:06:00,
2013-10-26 03:15:00,34.9,28.7,30.06,West,271,0.0,0.0,78,0.00,,,0.00,0,Wunderground v.1.15,2013-10-26 07:15:00,
2013-10-26 03:25:00,35.2,29.0,30.06,West,271,0.0,0.0,78,0.00,,,0.00,0,Wunderground v.1.15,2013-10-26 07:25:00,
2013-10-26 03:31:00,35.2,29.0,30.05,West,271,0.0,0.0,78,0.00,,,0.00,0,Wunderground v.1.15,2013-10-26 07:31:00,
2013-10-26 03:35:00,35.2,29.0,30.05,West,271,0.0,0.0,78,0.00,,,0.00,0,Wunderground v.1.15,2013-10-26 07:35:00,
2013-10-26 03:41:00,34.9,28.4,30.05,West,271,0.0,0.0,77,0.00,,,0.00,0,Wunderground v.1.15,2013-10-26 07:41:00,
2013-10-26 03:50:00,34.7,28.9,30.05,West,271,0.0,0.0,79,0.00,,,0.00,0,Wunderground v.1.15,2013-10-26 07:50:00,
2013-10-26 03:55:00,34.9,29.0,30.05,West,271,0.0,0.0,79,0.00,,,0.00,0,Wunderground v.1.15,2013-10-26 07:55:00,
2013-10-26 04:00:00,34.9,28.7,30.04,West,271,0.0,0.0,78,0.00,,,0.00,0,Wunderground v.1.15,2013-10-26 08:00:00,
2013-10-26 04:06:00,34.9,28.7,30.04,West,271,0.0,0.0,78,0.00,,,0.00,0,Wunderground v.1.15,2013-10-26 08:06:00,
2013-10-26 04:16:00,35.0,28.5,30.03,West,271,0.0,0.0,77,0.00,,,0.00,0,Wunderground v.1.15,2013-10-26 08:16:00,
2013-10-26 04:21:00,34.9,28.7,30.03,West,271,0.0,0.0,78,0.00,,,0.00,0,Wunderground v.1.15,2013-10-26 08:21:00,
2013-10-26 04:26:00,34.9,28.7,30.03,West,271,0.0,0.0,78,0.00,,,0.00,0,Wunderground v.1.15,2013-10-26 08:26:00,
2013-10-26 04:36:00,35.0,29.1,30.03,West,271,0.0,1.0,79,0.00,,,0.00,0,Wunderground v.1.15,2013-10-26 08:36:00,
2013-10-26 04:41:00,35.2,29.3,30.03,West,271,0.0,0.0,79,0.00,,,0.00,0,Wunderground v.1.15,2013-10-26 08:41:00,
2013-10-26 04:50:00,35.2,29.3,30.02,West,271,0.0,0.0,79,0.00,,,0.00,0,Wunderground v.1.15,2013-10-26 08:50:00,
2013-10-26 04:55:00,35.3,29.4,30.02,West,271,0.0,0.0,79,0.00,,,0.00,0,Wunderground v.1.15,2013-10-26 08:55:00,
2013-10-26 05:00:00,35.3,29.4,30.02,West,271,0.0,0.0,79,0.00,,,0.00,0,Wunderground v.1.15,2013-10-26 09:00:00,
2013-10-26 05:06:00,35.3,29.4,30.02,West,271,0.0,0.0,79,0.00,,,0.00,0,Wunderground v.1.15,2013-10-26 09:06:00,
2013-10-26 05:15:00,35.3,29.7,30.02,West,271,0.0,0.0,80,0.00,,,0.00,0,Wunderground v.1.15,2013-10-26 09:15:00,
2013-10-26 05:20:00,35.5,29.9,30.02,West,271,0.0,0.0,80,0.00,,,0.00,0,Wunderground v.1.15,2013-10-26 09:20:00,
2013-10-26 05:26:00,35.5,29.9,30.02,West,271,0.0,0.0,80,0.00,,,0.00,0,Wunderground v.1.15,2013-10-26 09:26:00,
2013-10-26 05:31:00,35.8,30.2,30.01,West,271,0.0,0.0,80,0.00,,,0.00,0,Wunderground v.1.15,2013-10-26 09:31:00,
2013-10-26 05:40:00,36.0,30.4,30.01,West,271,0.0,0.0,80,0.00,,,0.00,0,Wunderground v.1.15,2013-10-26 09:40:00,
2013-10-26 05:46:00,36.2,30.6,30.01,West,271,0.0,0.0,80,0.00,,,0.00,0,Wunderground v.1.15,2013-10-26 09:46:00,
2013-10-26 05:55:00,36.8,31.5,30.01,SW,234,0.0,1.0,81,0.00,,,0.00,0,Wunderground v.1.15,2013-10-26 09:55:00,
2013-10-26 06:00:00,36.9,31.6,30.00,SW,234,0.0,0.0,81,0.00,,,0.00,0,Wunderground v.1.15,2013-10-26 10:00:00,
2013-10-26 06:06:00,37.0,31.7,30.00,SW,234,0.0,0.0,81,0.00,,,0.00,0,Wunderground v.1.15,2013-10-26 10:06:00,
2013-10-26 06:15:00,37.6,32.6,30.00,ESE,117,0.0,1.0,82,0.00,,,0.00,0,Wunderground v.1.15,2013-10-26 10:15:00,
2013-10-26 06:20:00,38.0,33.3,30.00,ESE,117,0.0,0.0,83,0.00,,,0.00,0,Wunderground v.1.15,2013-10-26 10:20:00,
2013-10-26 06:26:00,38.3,33.3,30.00,ESE,117,0.0,1.0,82,0.00,,,0.00,0,Wunderground v.1.15,2013-10-26 10:26:00,
2013-10-26 06:31:00,38.6,33.6,29.99,ESE,113,0.0,0.0,82,0.00,,,0.00,0,Wunderground v.1.15,2013-10-26 10:31:00,
2013-10-26 06:40:00,39.1,34.1,29.99,ENE,72,0.0,0.0,82,0.00,,,0.00,0,Wunderground v.1.15,2013-10-26 10:40:00,
2013-10-26 06:45:00,39.3,34.0,29.99,WSW,250,1.0,2.0,81,0.00,,,0.00,0,Wunderground v.1.15,2013-10-26 10:45:00,
2013-10-26 06:50:00,39.5,34.2,29.99,North,2,0.0,0.0,81,0.00,,,0.00,0,Wunderground v.1.15,2013-10-26 10:50:00,
2013-10-26 07:00:00,39.8,34.4,29.98,East,81,0.0,0.0,81,0.00,,,0.00,0,Wunderground v.1.15,2013-10-26 11:00:00,
2013-10-26 07:06:00,39.8,34.1,29.98,SSE,148,1.0,1.0,80,0.00,,,0.00,0,Wunderground v.1.15,2013-10-26 11:06:00,
2013-10-26 07:15:00,39.9,34.2,29.98,East,82,0.0,2.0,80,0.00,,,0.00,0,Wunderground v.1.15,2013-10-26 11:15:00,
2013-10-26 07:21:00,39.8,34.1,29.98,ESE,112,1.0,1.0,80,0.00,,,0.00,0,Wunderground v.1.15,2013-10-26 11:21:00,
2013-10-26 07:26:00,39.8,34.1,29.98,East,84,2.0,2.0,80,0.00,,,0.00,0,Wunderground v.1.15,2013-10-26 11:26:00,
2013-10-26 07:35:00,39.9,33.9,29.98,East,81,1.0,4.0,79,0.00,,,0.00,5,Wunderground v.1.15,2013-10-26 11:35:00,
2013-10-26 07:40:00,39.9,33.9,29.98,East,84,1.0,2.0,79,0.00,,,0.00,9,Wunderground v.1.15,2013-10-26 11:40:00,
2013-10-26 07:45:00,40.1,34.1,29.99,East,84,1.0,2.0,79,0.00,,,0.00,9,Wunderground v.1.15,2013-10-26 11:45:00,
2013-10-26 07:50:00,40.1,33.8,29.99,ESE,108,1.0,1.0,78,0.00,,,0.00,11,Wunderground v.1.15,2013-10-26 11:50:00,
2013-10-26 07:55:00,40.2,33.9,29.99,ESE,109,1.0,1.0,78,0.00,,,0.00,9,Wunderground v.1.15,2013-10-26 11:55:00,
2013-10-26 08:00:00,40.2,33.9,29.98,East,87,0.0,0.0,78,0.00,,,0.00,11,Wunderground v.1.15,2013-10-26 12:00:00,
2013-10-26 08:06:00,40.3,34.0,29.98,ENE,63,1.0,1.0,78,0.00,,,0.00,16,Wunderground v.1.15,2013-10-26 12:06:00,
2013-10-26 08:15:00,40.3,34.0,29.99,NE,52,1.0,1.0,78,0.00,,,0.00,16,Wunderground v.1.15,2013-10-26 12:15:00,
2013-10-26 08:21:00,40.2,33.9,29.99,East,80,1.0,1.0,78,0.00,,,0.00,23,Wunderground v.1.15,2013-10-26 12:21:00,
2013-10-26 08:26:00,40.2,34.2,29.99,East,97,0.0,1.0,79,0.00,,,0.00,23,Wunderground v.1.15,2013-10-26 12:26:00,
2013-10-26 08:35:00,40.2,33.9,29.98,East,87,1.0,1.0,78,0.00,,,0.00,26,Wunderground v.1.15,2013-10-26 12:35:00,
2013-10-26 08:40:00,40.2,33.9,29.98,East,92,1.0,1.0,78,0.00,,,0.00,35,Wunderground v.1.15,2013-10-26 12:40:00,
2013-10-26 08:45:00,40.2,33.9,29.98,ENE,68,1.0,1.0,78,0.00,,,0.00,33,Wunderground v.1.15,2013-10-26 12:45:00,
2013-10-26 08:50:00,40.3,34.0,29.98,East,93,1.0,1.0,78,0.00,,,0.00,32,Wunderground v.1.15,2013-10-26 12:50:00,
2013-10-26 08:55:00,40.3,33.7,29.98,NE,56,2.0,4.0,77,0.00,,,0.00,26,Wunderground v.1.15,2013-10-26 12:55:00,
2013-10-26 09:00:00,40.3,33.7,29.98,ESE,108,2.0,2.0,77,0.00,,,0.00,32,Wunderground v.1.15,2013-10-26 13:00:00,
2013-10-26 09:06:00,40.3,34.3,29.98,NNE,33,1.0,2.0,79,0.00,,,0.00,44,Wunderground v.1.15,2013-10-26 13:06:00,
2013-10-26 09:15:00,40.2,34.5,29.97,SE,143,1.0,2.0,80,0.00,,,0.00,51,Wunderground v.1.15,2013-10-26 13:15:00,
2013-10-26 09:21:00,40.2,34.5,29.97,East,91,1.0,1.0,80,0.00,,,0.00,58,Wunderground v.1.15,2013-10-26 13:21:00,
2013-10-26 09:26:00,40.3,34.9,29.97,East,91,0.0,1.0,81,0.00,,,0.00,69,Wunderground v.1.15,2013-10-26 13:26:00,
2013-10-26 09:35:00,40.5,34.8,29.97,WNW,293,1.0,3.0,80,0.00,,,0.00,83,Wunderground v.1.15,2013-10-26 13:35:00,
2013-10-26 09:40:00,40.8,34.8,29.97,East,91,1.0,1.0,79,0.00,,,0.00,77,Wunderground v.1.15,2013-10-26 13:40:00,
2013-10-26 10:25:00,41.5,33.5,29.95,West,262,0.0,0.0,73,0.00,,,0.00,67,Wunderground v.1.15,2013-10-26 14:25:00,
2013-10-26 10:30:00,41.5,33.1,29.94,SE,129,1.0,1.0,72,0.00,,,0.00,77,Wunderground v.1.15,2013-10-26 14:30:00,
2013-10-26 10:35:00,41.6,32.9,29.94,ESE,105,1.0,1.0,71,0.00,,,0.00,74,Wunderground v.1.15,2013-10-26 14:35:00,
2013-10-26 10:40:00,41.8,32.7,29.94,SE,135,1.0,3.0,70,0.00,,,0.00,76,Wunderground v.1.15,2013-10-26 14:40:00,
2013-10-26 10:45:00,41.9,32.8,29.93,North,3,1.0,3.0,70,0.00,,,0.00,93,Wunderground v.1.15,2013-10-26 14:45:00,
2013-10-26 10:50:00,41.9,32.5,29.93,East,99,1.0,2.0,69,0.00,,,0.00,109,Wunderground v.1.15,2013-10-26 14:50:00,
2013-10-26 11:00:00,42.3,32.8,29.93,East,101,1.0,1.0,69,0.00,,,0.00,120,Wunderground v.1.15,2013-10-26 15:00:00,
2013-10-26 11:06:00,42.5,33.0,29.93,East,93,1.0,1.0,69,0.00,,,0.00,107,Wunderground v.1.15,2013-10-26 15:06:00,
2013-10-26 11:16:00,42.9,32.7,29.92,NNE,33,0.0,0.0,67,0.00,,,0.00,116,Wunderground v.1.15,2013-10-26 15:16:00,
2013-10-26 11:25:00,42.9,31.6,29.92,ENE,63,1.0,1.0,64,0.00,,,0.00,104,Wunderground v.1.15,2013-10-26 15:25:00,
2013-10-26 11:30:00,43.1,31.4,29.91,East,86,2.0,2.0,63,0.00,,,0.00,107,Wunderground v.1.15,2013-10-26 15:30:00,
2013-10-26 11:35:00,43.1,31.7,29.91,East,100,1.0,2.0,64,0.00,,,0.00,118,Wunderground v.1.15,2013-10-26 15:35:00,
2013-10-26 11:40:00,43.1,31.7,29.91,ENE,71,1.0,2.0,64,0.00,,,0.00,118,Wunderground v.1.15,2013-10-26 15:40:00,
2013-10-26 11:45:00,43.1,30.6,29.90,East,96,1.0,3.0,61,0.00,,,0.00,125,Wunderground v.1.15,2013-10-26 15:45:00,
2013-10-26 11:50:00,43.2,31.1,29.90,East,91,1.0,1.0,62,0.00,,,0.00,120,Wunderground v.1.15,2013-10-26 15:50:00,
2013-10-26 11:55:00,43.3,30.7,29.90,ENE,68,1.0,1.0,61,0.00,,,0.00,100,Wunderground v.1.15,2013-10-26 15:55:00,
2013-10-26 12:01:00,43.3,30.3,29.90,ESE,105,1.0,1.0,60,0.00,,,0.00,97,Wunderground v.1.15,2013-10-26 16:01:00,
2013-10-26 12:06:00,43.3,30.7,29.90,ESE,105,1.0,1.0,61,0.00,,,0.00,111,Wunderground v.1.15,2013-10-26 16:06:00,
2013-10-26 12:15:00,43.3,30.3,29.89,East,96,2.0,4.0,60,0.00,,,0.00,139,Wunderground v.1.15,2013-10-26 16:15:00,
2013-10-26 12:20:00,43.5,30.5,29.89,East,90,2.0,2.0,60,0.00,,,0.00,130,Wunderground v.1.15,2013-10-26 16:20:00,
2013-10-26 12:25:00,43.6,31.0,29.89,ENE,73,1.0,2.0,61,0.00,,,0.00,141,Wunderground v.1.15,2013-10-26 16:25:00,
2013-10-26 12:30:00,43.8,30.8,29.88,ENE,65,1.0,2.0,60,0.00,,,0.00,98,Wunderground v.1.15,2013-10-26 16:30:00,
2013-10-26 12:35:00,43.8,30.8,29.88,North,3,1.0,2.0,60,0.00,,,0.00,77,Wunderground v.1.15,2013-10-26 16:35:00,
2013-10-26 12:40:00,43.8,30.4,29.88,NE,50,2.0,2.0,59,0.00,,,0.00,54,Wunderground v.1.15,2013-10-26 16:40:00,
2013-10-26 12:45:00,43.6,30.2,29.87,ENE,63,1.0,2.0,59,0.00,,,0.00,74,Wunderground v.1.15,2013-10-26 16:45:00,
2013-10-26 12:50:00,43.5,29.7,29.87,ESE,121,2.0,2.0,58,0.00,,,0.00,102,Wunderground v.1.15,2013-10-26 16:50:00,
2013-10-26 12:55:00,43.6,30.2,29.87,East,94,1.0,3.0,59,0.00,,,0.00,128,Wunderground v.1.15,2013-10-26 16:55:00,
2013-10-26 13:00:00,43.8,29.5,29.86,SSE,150,1.0,1.0,57,0.00,,,0.00,153,Wunderground v.1.15,2013-10-26 17:00:00,
2013-10-26 13:06:00,44.2,29.9,29.86,NNE,13,2.0,2.0,57,0.00,,,0.00,237,Wunderground v.1.15,2013-10-26 17:06:00,
2013-10-26 13:15:00,45.1,29.4,29.85,East,86,2.0,2.0,54,0.00,,,0.00,218,Wunderground v.1.15,2013-10-26 17:15:00,
2013-10-26 13:25:00,45.7,30.0,29.85,ENE,63,2.0,3.0,54,0.00,,,0.00,236,Wunderground v.1.15,2013-10-26 17:25:00,
2013-10-26 13:30:00,46.0,29.3,29.84,SE,125,2.0,2.0,52,0.00,,,0.00,209,Wunderground v.1.15,2013-10-26 17:30:00,
2013-10-26 13:35:00,46.0,29.8,29.84,NE,49,2.0,5.0,53,0.00,,,0.00,214,Wunderground v.1.15,2013-10-26 17:35:00,
2013-10-26 13:40:00,46.0,29.8,29.84,East,101,2.0,5.0,53,0.00,,,0.00,216,Wunderground v.1.15,2013-10-26 17:40:00,
2013-10-26 13:45:00,46.2,30.0,29.82,NE,34,2.0,5.0,53,0.00,,,0.00,239,Wunderground v.1.15,2013-10-26 17:45:00,
2013-10-26 13:50:00,46.5,28.8,29.82,North,357,2.0,2.0,50,0.00,,,0.00,283,Wunderground v.1.15,2013-10-26 17:50:00,
2013-10-26 13:55:00,46.8,30.1,29.82,ESE,122,2.0,2.0,52,0.00,,,0.00,230,Wunderground v.1.15,2013-10-26 17:55:00,
2013-10-26 14:00:00,47.3,31.0,29.82,NE,48,1.0,1.0,53,0.00,,,0.00,248,Wunderground v.1.15,2013-10-26 18:00:00,
2013-10-26 14:06:00,47.7,30.0,29.82,North,0,1.0,3.0,50,0.00,,,0.00,223,Wunderground v.1.15,2013-10-26 18:06:00,
2013-10-26 14:15:00,47.4,28.7,29.81,ESE,113,2.0,6.0,48,0.00,,,0.00,267,Wunderground v.1.15,2013-10-26 18:15:00,
2013-10-26 14:20:00,47.7,30.4,29.81,ENE,75,2.0,2.0,51,0.00,,,0.00,244,Wunderground v.1.15,2013-10-26 18:20:00,
2013-10-26 14:25:00,48.0,29.7,29.81,SSW,195,1.0,2.0,49,0.00,,,0.00,257,Wunderground v.1.15,2013-10-26 18:25:00,
2013-10-26 14:35:00,48.5,29.2,29.80,ESE,117,2.0,2.0,47,0.00,,,0.00,255,Wunderground v.1.15,2013-10-26 18:35:00,
2013-10-26 14:40:00,48.6,29.3,29.80,NNE,33,1.0,1.0,47,0.00,,,0.00,186,Wunderground v.1.15,2013-10-26 18:40:00,
2013-10-26 14:45:00,48.6,29.8,29.79,NE,49,1.0,1.0,48,0.00,,,0.00,183,Wunderground v.1.15,2013-10-26 18:45:00,
2013-10-26 14:50:00,48.6,28.7,29.79,ESE,112,1.0,1.0,46,0.00,,,0.00,167,Wunderground v.1.15,2013-10-26 18:50:00,
2013-10-26 14:55:00,48.5,29.2,29.79,ENE,77,1.0,1.0,47,0.00,,,0.00,178,Wunderground v.1.15,2013-10-26 18:55:00,
2013-10-26 15:00:00,48.3,28.5,29.79,NE,55,1.0,4.0,46,0.00,,,0.00,171,Wunderground v.1.15,2013-10-26 19:00:00,
2013-10-26 15:06:00,48.3,29.0,29.79,East,82,1.0,4.0,47,0.00,,,0.00,162,Wunderground v.1.15,2013-10-26 19:06:00,
2013-10-26 15:15:00,48.3,28.5,29.79,North,2,2.0,5.0,46,0.00,,,0.00,134,Wunderground v.1.15,2013-10-26 19:15:00,
2013-10-26 15:20:00,48.3,27.9,29.79,East,89,2.0,2.0,45,0.00,,,0.00,125,Wunderground v.1.15,2013-10-26 19:20:00,
2013-10-26 15:25:00,48.2,27.8,29.79,North,0,2.0,2.0,45,0.00,,,0.00,98,Wunderground v.1.15,2013-10-26 19:25:00,
2013-10-26 15:30:00,48.2,28.4,29.79,ENE,78,2.0,5.0,46,0.00,,,0.00,97,Wunderground v.1.15,2013-10-26 19:30:00,
2013-10-26 15:35:00,48.0,28.2,29.79,ENE,63,2.0,5.0,46,0.00,,,0.00,67,Wunderground v.1.15,2013-10-26 19:35:00,
2013-10-26 15:45:00,47.7,28.9,29.79,ESE,109,1.0,6.0,48,0.00,,,0.00,70,Wunderground v.1.15,2013-10-26 19:45:00,
2013-10-26 15:50:00,47.6,27.8,29.79,North,1,2.0,2.0,46,0.00,,,0.00,53,Wunderground v.1.15,2013-10-26 19:50:00,
2013-10-26 15:55:00,47.4,28.7,29.79,ESE,105,2.0,2.0,48,0.00,,,0.00,47,Wunderground v.1.15,2013-10-26 19:55:00,
2013-10-26 16:01:00,47.3,28.6,29.80,ENE,68,2.0,2.0,48,0.00,,,0.00,47,Wunderground v.1.15,2013-10-26 20:01:00,
2013-10-26 16:06:00,47.1,28.9,29.80,ESE,122,2.0,12.0,49,0.00,,,0.00,44,Wunderground v.1.15,2013-10-26 20:06:00,
2013-10-26 16:15:00,46.8,29.1,29.80,ESE,110,4.0,10.0,50,0.00,,,0.00,30,Wunderground v.1.15,2013-10-26 20:15:00,
2013-10-26 16:20:00,46.7,30.0,29.80,ENE,60,2.0,4.0,52,0.00,,,0.00,32,Wunderground v.1.15,2013-10-26 20:20:00,
2013-10-26 16:25:00,46.4,29.7,29.80,ESE,105,2.0,4.0,52,0.00,,,0.00,30,Wunderground v.1.15,2013-10-26 20:25:00,
2013-10-26 16:30:00,46.4,29.7,29.80,ENE,61,1.0,3.0,52,0.00,,,0.00,19,Wunderground v.1.15,2013-10-26 20:30:00,
2013-10-26 16:35:00,46.4,28.3,29.80,ENE,58,1.0,3.0,49,0.00,,,0.00,16,Wunderground v.1.15,2013-10-26 20:35:00,
2013-10-26 16:40:00,46.4,29.2,29.80,NNE,17,2.0,2.0,51,0.00,,,0.00,16,Wunderground v.1.15,2013-10-26 20:40:00,
2013-10-26 16:46:00,46.2,28.6,29.81,ENE,72,1.0,2.0,50,0.00,,,0.00,12,Wunderground v.1.15,2013-10-26 20:46:00,
2013-10-26 16:56:00,46.2,28.1,29.81,ENE,62,1.0,2.0,49,0.00,,,0.00,11,Wunderground v.1.15,2013-10-26 20:56:00,
2013-10-26 17:01:00,46.1,28.0,29.81,East,86,1.0,1.0,49,0.00,,,0.00,11,Wunderground v.1.15,2013-10-26 21:01:00,
2013-10-26 17:10:00,46.0,28.9,29.81,NE,34,1.0,2.0,51,0.00,,,0.00,9,Wunderground v.1.15,2013-10-26 21:10:00,
2013-10-26 17:15:00,45.8,28.7,29.81,South,186,1.0,3.0,51,0.00,,,0.00,7,Wunderground v.1.15,2013-10-26 21:15:00,
2013-10-26 17:20:00,45.7,28.6,29.81,East,96,2.0,2.0,51,0.00,,,0.00,0,Wunderground v.1.15,2013-10-26 21:20:00,
2013-10-26 17:25:00,45.7,29.1,29.81,ENE,59,2.0,3.0,52,0.00,,,0.00,0,Wunderground v.1.15,2013-10-26 21:25:00,
2013-10-26 17:30:00,45.5,29.3,29.81,East,91,1.0,3.0,53,0.00,,,0.00,0,Wunderground v.1.15,2013-10-26 21:30:00,
2013-10-26 17:36:00,45.2,30.0,29.81,SE,143,2.0,3.0,55,0.00,,,0.00,0,Wunderground v.1.15,2013-10-26 21:36:00,
2013-10-26 17:41:00,44.9,30.6,29.81,East,85,2.0,3.0,57,0.00,,,0.00,0,Wunderground v.1.15,2013-10-26 21:41:00,
2013-10-26 17:50:00,44.3,31.3,29.82,NE,42,1.0,3.0,60,0.00,,,0.00,0,Wunderground v.1.15,2013-10-26 21:50:00,
2013-10-26 17:55:00,44.1,31.1,29.82,NE,50,1.0,3.0,60,0.00,,,0.00,0,Wunderground v.1.15,2013-10-26 21:55:00,
2013-10-26 18:00:00,43.9,31.3,29.82,ESE,110,1.0,1.0,61,0.00,,,0.00,0,Wunderground v.1.15,2013-10-26 22:00:00,
2013-10-26 18:06:00,43.8,31.6,29.82,East,97,1.0,5.0,62,0.00,,,0.00,0,Wunderground v.1.15,2013-10-26 22:06:00,
2013-10-26 18:15:00,43.5,32.1,29.82,East,82,1.0,2.0,64,0.00,,,0.00,0,Wunderground v.1.15,2013-10-26 22:15:00,
2013-10-26 18:20:00,43.3,32.3,29.82,ESE,108,1.0,1.0,65,0.00,,,0.00,0,Wunderground v.1.15,2013-10-26 22:20:00,
2013-10-26 18:25:00,43.2,32.2,29.82,ENE,74,2.0,2.0,65,0.00,,,0.00,0,Wunderground v.1.15,2013-10-26 22:25:00,
2013-10-26 18:30:00,43.1,32.1,29.83,ESE,104,2.0,2.0,65,0.00,,,0.00,0,Wunderground v.1.15,2013-10-26 22:30:00,
2013-10-26 18:35:00,43.1,32.9,29.83,ENE,60,1.0,2.0,67,0.00,,,0.00,0,Wunderground v.1.15,2013-10-26 22:35:00,
2013-10-26 18:40:00,42.9,32.7,29.83,ENE,60,1.0,1.0,67,0.00,,,0.00,0,Wunderground v.1.15,2013-10-26 22:40:00,
2013-10-26 18:46:00,42.9,32.7,29.82,NNE,33,1.0,1.0,67,0.00,,,0.00,0,Wunderground v.1.15,2013-10-26 22:46:00,
2013-10-26 18:51:00,42.9,32.7,29.82,NE,51,1.0,1.0,67,0.00,,,0.00,0,Wunderground v.1.15,2013-10-26 22:51:00,
2013-10-26 19:00:00,42.9,31.9,29.82,ENE,71,1.0,2.0,65,0.00,,,0.00,0,Wunderground v.1.15,2013-10-26 23:00:00,
2013-10-26 19:06:00,42.9,32.3,29.82,NE,49,1.0,3.0,66,0.00,,,0.00,0,Wunderground v.1.15,2013-10-26 23:06:00,
2013-10-26 19:15:00,43.1,32.5,29.82,ESE,122,1.0,4.0,66,0.00,,,0.00,0,Wunderground v.1.15,2013-10-26 23:15:00,
2013-10-26 19:20:00,43.1,32.9,29.82,ESE,122,1.0,1.0,67,0.00,,,0.00,0,Wunderground v.1.15,2013-10-26 23:20:00,
2013-10-26 19:25:00,43.1,32.9,29.82,SE,138,0.0,1.0,67,0.00,,,0.00,0,Wunderground v.1.15,2013-10-26 23:25:00,
2013-10-26 19:30:00,43.1,32.5,29.82,SE,138,0.0,0.0,66,0.00,,,0.00,0,Wunderground v.1.15,2013-10-26 23:30:00,
2013-10-26 19:35:00,43.1,32.5,29.82,SE,138,0.0,0.0,66,0.00,,,0.00,0,Wunderground v.1.15,2013-10-26 23:35:00,
2013-10-26 19:41:00,43.1,32.9,29.82,SE,138,0.0,0.0,67,0.00,,,0.00,0,Wunderground v.1.15,2013-10-26 23:41:00,
2013-10-26 19:46:00,43.1,32.9,29.82,SE,138,0.0,0.0,67,0.00,,,0.00,0,Wunderground v.1.15,2013-10-26 23:46:00,
2013-10-26 19:55:00,43.1,33.3,29.82,SE,138,0.0,0.0,68,0.00,,,0.00,0,Wunderground v.1.15,2013-10-26 23:55:00,
2013-10-26 20:00:00,43.1,33.3,29.82,SE,138,0.0,0.0,68,0.00,,,0.00,0,Wunderground v.1.15,2013-10-27 00:00:00,
2013-10-26 20:06:00,43.1,33.3,29.82,SE,138,0.0,0.0,68,0.00,,,0.00,0,Wunderground v.1.15,2013-10-27 00:06:00,
2013-10-26 20:15:00,43.2,33.7,29.82,SE,138,0.0,0.0,69,0.00,,,0.00,0,Wunderground v.1.15,2013-10-27 00:15:00,
2013-10-26 20:21:00,43.2,33.3,29.82,SE,138,0.0,0.0,68,0.00,,,0.00,0,Wunderground v.1.15,2013-10-27 00:21:00,
2013-10-26 20:31:00,43.1,32.9,29.81,SE,138,0.0,0.0,67,0.00,,,0.00,0,Wunderground v.1.15,2013-10-27 00:31:00,
2013-10-26 20:36:00,42.9,32.7,29.81,SE,138,0.0,0.0,67,0.00,,,0.00,0,Wunderground v.1.15,2013-10-27 00:36:00,
2013-10-26 20:41:00,42.8,33.0,29.81,SE,138,0.0,0.0,68,0.00,,,0.00,0,Wunderground v.1.15,2013-10-27 00:41:00,
2013-10-26 20:50:00,42.5,32.7,29.80,SE,138,0.0,0.0,68,0.00,,,0.00,0,Wunderground v.1.15,2013-10-27 00:50:00,
2013-10-26 20:55:00,42.5,32.7,29.80,SE,138,0.0,0.0,68,0.00,,,0.00,0,Wunderground v.1.15,2013-10-27 00:55:00,
2013-10-26 21:00:00,42.5,32.7,29.80,SE,138,0.0,0.0,68,0.00,,,0.00,0,Wunderground v.1.15,2013-10-27 01:00:00,
2013-10-26 21:06:00,42.5,32.7,29.80,SE,138,0.0,0.0,68,0.00,,,0.00,0,Wunderground v.1.15,2013-10-27 01:06:00,
2013-10-26 21:16:00,42.5,32.3,29.80,SE,138,0.0,0.0,67,0.00,,,0.00,0,Wunderground v.1.15,2013-10-27 01:16:00,
2013-10-26 21:25:00,42.5,31.9,29.80,SE,138,0.0,0.0,66,0.00,,,0.00,0,Wunderground v.1.15,2013-10-27 01:25:00,
2013-10-26 21:30:00,42.6,32.0,29.80,SE,138,0.0,0.0,66,0.00,,,0.00,0,Wunderground v.1.15,2013-10-27 01:30:00,
2013-10-26 21:35:00,42.8,32.2,29.80,SE,138,0.0,0.0,66,0.00,,,0.00,0,Wunderground v.1.15,2013-10-27 01:35:00,
2013-10-26 21:45:00,42.8,32.6,29.80,SE,138,0.0,0.0,67,0.00,,,0.00,0,Wunderground v.1.15,2013-10-27 01:45:00,
2013-10-26 21:50:00,42.9,32.7,29.80,SE,138,0.0,0.0,67,0.00,,,0.00,0,Wunderground v.1.15,2013-10-27 01:50:00,
2013-10-26 21:55:00,43.1,32.9,29.80,SE,138,0.0,0.0,67,0.00,,,0.00,0,Wunderground v.1.15,2013-10-27 01:55:00,
2013-10-26 22:00:00,43.2,32.6,29.80,SE,138,0.0,0.0,66,0.00,,,0.00,0,Wunderground v.1.15,2013-10-27 02:00:00,
2013-10-26 22:06:00,43.2,32.6,29.80,SE,138,0.0,0.0,66,0.00,,,0.00,0,Wunderground v.1.15,2013-10-27 02:06:00,
2013-10-26 22:15:00,43.5,32.5,29.80,North,1,0.0,0.0,65,0.00,,,0.00,0,Wunderground v.1.15,2013-10-27 02:15:00,
2013-10-26 22:20:00,43.6,32.6,29.80,North,10,0.0,0.0,65,0.00,,,0.00,0,Wunderground v.1.15,2013-10-27 02:20:00,
2013-10-26 22:25:00,43.6,32.6,29.80,NW,307,0.0,0.0,65,0.00,,,0.00,0,Wunderground v.1.15,2013-10-27 02:25:00,
2013-10-26 22:30:00,43.6,32.6,29.79,SSW,213,0.0,0.0,65,0.00,,,0.00,0,Wunderground v.1.15,2013-10-27 02:30:00,
2013-10-26 22:35:00,43.6,32.6,29.79,SSW,213,0.0,0.0,65,0.00,,,0.00,0,Wunderground v.1.15,2013-10-27 02:35:00,
2013-10-26 22:40:00,43.8,32.4,29.79,SSW,213,0.0,0.0,64,0.00,,,0.00,0,Wunderground v.1.15,2013-10-27 02:40:00,
2013-10-26 22:45:00,43.8,32.4,29.78,NNE,21,0.0,0.0,64,0.00,,,0.00,0,Wunderground v.1.15,2013-10-27 02:45:00,
2013-10-26 22:50:00,43.6,32.2,29.78,NE,34,0.0,0.0,64,0.00,,,0.00,0,Wunderground v.1.15,2013-10-27 02:50:00,
2013-10-26 22:55:00,43.8,32.8,29.78,NE,34,0.0,0.0,65,0.00,,,0.00,0,Wunderground v.1.15,2013-10-27 02:55:00,
2013-10-26 23:00:00,43.9,32.5,29.78,NE,34,0.0,0.0,64,0.00,,,0.00,0,Wunderground v.1.15,2013-10-27 03:00:00,
2013-10-26 23:06:00,44.1,32.7,29.78,ENE,61,0.0,0.0,64,0.00,,,0.00,0,Wunderground v.1.15,2013-10-27 03:06:00,
2013-10-26 23:15:00,44.2,32.4,29.77,ENE,62,0.0,0.0,63,0.00,,,0.00,0,Wunderground v.1.15,2013-10-27 03:15:00,
2013-10-26 23:20:00,44.1,32.3,29.77,ENE,62,0.0,0.0,63,0.00,,,0.00,0,Wunderground v.1.15,2013-10-27 03:20:00,
2013-10-26 23:25:00,44.1,32.3,29.77,ENE,62,0.0,0.0,63,0.00,,,0.00,0,Wunderground v.1.15,2013-10-27 03:25:00,
2013-10-26 23:30:00,44.1,32.7,29.77,ENE,62,0.0,0.0,64,0.00,,,0.00,0,Wunderground v.1.15,2013-10-27 03:30:00,
2013-10-26 23:35:00,44.1,32.7,29.77,East,96,0.0,1.0,64,0.00,,,0.00,0,Wunderground v.1.15,2013-10-27 03:35:00,
2013-10-26 23:40:00,44.1,32.7,29.77,ESE,119,0.0,0.0,64,0.00,,,0.00,0,Wunderground v.1.15,2013-10-27 03:40:00,
2013-10-26 23:45:00,44.1,32.7,29.76,ESE,119,0.0,0.0,64,0.00,,,0.00,0,Wunderground v.1.15,2013-10-27 03:45:00,
2013-10-26 23:50:00,44.1,32.7,29.76,NE,56,0.0,0.0,64,0.00,,,0.00,0,Wunderground v.1.15,2013-10-27 03:50:00,
2013-10-26 23:55:00,44.1,31.9,29.76,ESE,102,0.0,0.0,62,0.00,,,0.00,0,Wunderground v.1.15,2013-10-27 03:55:00,